Regional Weather Roundup
Issued by NWS

Home | Current Version | Previous Version | Text Only | Print | Product List | Glossary On
Versions: 1 2 3 4 5 6 7 8 9 10 11 12 13 14 15 16 17 18 19 20 21 22 23 24 25 26 27 28 29 30 31 32 33 34 35 36 37 38 39 40 41 42 43 44 45 46 47 48 49 50
000
ASUS43 KMKX 271300
RWRWI

WISCONSIN REGIONAL WEATHER ROUNDUP
NATIONAL WEATHER SERVICE MILWAUKEE/SULLIVAN WI
800 AM CDT WED AUG 27 2014

NOTE: "FAIR" INDICATES FEW OR NO CLOUDS BELOW 12,000 FEET WITH NO
SIGNIFICANT WEATHER AND/OR OBSTRUCTIONS TO VISIBILITY.

WIZ001-002-006>008-014>016-023>028-271400-
NORTHWEST WISCONSIN

CITY           SKY/WX    TMP DP  RH WIND       PRES   REMARKS
SUPERIOR ARPT  SUNNY     52  52  99 CALM      30.21S
ASHLAND        SUNNY     56  53  90 W3        30.22R
HAYWARD        SUNNY     55  54  96 NE3       30.22R
SIREN          MOSUNNY   56  53  89 CALM      30.21S
RICE LAKE      SUNNY     57  53  87 CALM      30.22S
LADYSMITH      SUNNY     57  54  89 N3        30.22S
EAU CLAIRE     NOT AVBL
MENOMONIE      MOSUNNY   60  58  92 CALM      30.21R
NEW RICHMOND   SUNNY     58  56  94 CALM      30.21S
OSCEOLA        PTSUNNY   57  57 100 CALM      30.23S
$$

WIZ003>005-009-010-017-018-271400-
NORTH CENTRAL WISCONSIN

CITY           SKY/WX    TMP DP  RH WIND       PRES   REMARKS
WOODRUFF       SUNNY     57  55  95 N3        30.20S
RHINELANDER    MOSUNNY   56  54  93 CALM      30.20S
EAGLE RIVER    SUNNY     54  54 100 N3        30.20R
LAND O LAKES   PTSUNNY   54  54 100 CALM      30.21R
PHILLIPS       SUNNY     54  53  95 CALM      30.20S
TOMAHAWK       SUNNY     54  53  97 CALM      30.20S
MEDFORD        SUNNY     55  55 100 CALM      30.20S
MERRILL        SUNNY     55  55 100 CALM      30.20S
$$

WIZ029-030-035-036-043>047-271400-
CENTRAL WISCONSIN

CITY           SKY/WX    TMP DP  RH WIND       PRES   REMARKS
WAUSAU         MOSUNNY   59  57  93 CALM      30.19R
MOSINEE        SUNNY     61  55  82 CALM      30.21R
MARSHFIELD     SUNNY     62  56  80 CALM      30.20R
STEVENS POINT  SUNNY     56  55  93 CALM      30.20R
WAUPACA        MOSUNNY   60  58  91 N3        30.19S
WAUTOMA        NOT AVBL
WISC RAPIDS    MOSUNNY   63  53  70 CALM      30.21R
CAMP DOUGLAS   NOT AVBL
$$

WIZ011>013-019>022-031-037>040-048>050-271400-
NORTHEAST WISCONSIN

CITY           SKY/WX    TMP DP  RH WIND       PRES   REMARKS
ANTIGO         MOSUNNY   55  55  99 CALM      30.20S
STURGEON BAY   PTSUNNY   61  54  77 CALM      30.19R
GREEN BAY      MOSUNNY   62  55  77 N6        30.18S
MANITOWOC      NOT AVBL
APPLETON       MOSUNNY   59  54  82 N8        30.18S
CLINTONVILLE   MOSUNNY   59  54  82 N6        30.19R
OSHKOSH        MOSUNNY   65  59  81 SE8       30.17R
$$

WIZ032>034-041-042-053>061-271400-
SOUTHWEST WISCONSIN

CITY           SKY/WX    TMP DP  RH WIND       PRES   REMARKS
LA CROSSE      CLOUDY    65  58  78 SE3       30.18R
SPARTA         CLOUDY    58  57  96 CALM      30.20R
VIROQUA        CLOUDY    60  60  99 CALM      30.19R
BOSCOBEL       SUNNY     64  60  87 CALM      30.18R
PRAIRIE DU CHI SUNNY     60  58  94 CALM      30.17R
PLATTEVILLE    FAIR      63  58  86 CALM      30.18R
$$

WIZ056-057-062-063-064-067-068-271400-
SOUTH CENTRAL WISCONSIN

CITY           SKY/WX    TMP DP  RH WIND       PRES   REMARKS
BARABOO/DELLS  CLOUDY    61  55  79 CALM      30.17S
LONE ROCK      NOT AVBL
WATERTOWN      PTSUNNY   61  60  97 CALM      30.16S
MADISON        PTSUNNY   63  58  83 CALM      30.16F
MIDDLETON      FAIR      62  61  97 CALM      30.17S
MONROE         SUNNY     63  59  88 NE6       30.15F
JANESVILLE     MOSUNNY   66  57  72 NE8       30.15F
$$

WIZ051-052-058>065-066-070>072-271400-
SOUTHEAST WISCONSIN

CITY           SKY/WX    TMP DP  RH WIND       PRES   REMARKS
MILWAUKEE      MOSUNNY   67  60  78 N3        30.15F
WAUKESHA       MOSUNNY   63  57  82 NE3       30.17F
MILWAUKEE/TIMM SUNNY     64  57  77 CALM      30.17S
RACINE         SUNNY     67  61  81 N5        30.17S
BURLINGTON     SUNNY     61  59  94 N3        30.16S
KENOSHA        SUNNY     66  60  81 N6        30.16S
FOND DU LAC    CLOUDY    63  58  83 CALM      30.17S
SHEBOYGAN      PTSUNNY   64  58  80 E7        30.15F
WEST BEND      CLOUDY    61  57  88 NE3       30.16S
JUNEAU         MOSUNNY   62  58  88 NE3       30.17F
$$

LSZ147-162-271400-
LAKE SUPERIOR

STATION/POSITION TIME  TEMP    WIND        PRES    WAVE
                       AIR SEA DIR/SP/G            HT/PER
                 (UTC) (F)     (DEG/KT/KT) (MB)    (FT/S)
W MID LAKE BUOY  1150   56 53  280/  6/  6 1022.2R   0
DEVILS ISLAND    1200   58     320/  9/ 11 1022.9R
PORT WING        1240   54     150/  2/  3 1023.0R
SAXON HARBOR     1200   57      CALM  /  4 1022.7R
$$

LMZ867-665-643>646-271400-
LAKE MICHIGAN

STATION/POSITION TIME  TEMP    WIND        PRES    WAVE
                       AIR SEA DIR/SP/G            HT/PER
                 (UTC) (F)     (DEG/KT/KT) (MB)    (FT/S)
N MID LAKE BUOY  1150   61 65   10/  8/ 10 1021.1R   1/ 3
NORTHPORT PIER   1200   61     360/  7/  9 1021.3R
SISTER BAY       1211   60        CALM       N/A
KEWAUNEE LAKESHO 1200   63      90/  5/  6 1020.4R
SHEBOYGAN LAKESH 1200   64 66   60/ 14/ 15 1021.3R
ATWATER BUOY     1200   67      10/ 12/ 14 1022.0R
MILWAUKEE LAKESH 1200   66     350/  7/  9   N/A
S MID LAKE BUOY  1150   68 69   50/  2/  2 1020.8R   0
KENOSHA   LAKESH 1200   66     340/  6/  8 1020.7R
$$

TC  - TEMPERATURE IN CELSIUS
VSB - VISIBILITY IN STATUTE MILES
WCI - WIND CHILL INDEX
HX  - HEAT INDEX



USA.gov is the U.S. government's official web portal to all federal, state and local government web resources and services.